Location: Hormuz
(27.0871°N, 56.4580°E)
Time: 05:07:19
(UTC+04:30)

X-37B - Pass Details

Date: 26 June 2021
Orbit: 383 x 392 km, 45.0° (Epoch: 01 July)

Event Time Altitude Azimuth Distance (km) Brightness Sun altitude
Rises 20:35:24 0° 275° (W) 2,250 5.6 -11.0°
Reaches altitude 10° 20:38:32 10° 309° (NW) 1,398 4.9 -11.6°
Maximum altitude 20:39:48 12° 333° (NNW) 1,294 4.2 -11.9°
Drops below altitude 10° 20:41:03 10° 357° (N) 1,398 3.9 -12.1°
Sets 20:44:12 0° 31° (NNE) 2,252 4.5 -12.7°
